| time (UTC) | temp C | wind direction | speed KPH | gust KPH | rain 1hr cm | rain 24hr cm | rain mn cm | humidity % | barometer mb |
| 20260502194630 | 19 | 224 | 3.2 | 8.0 | 0.00 | 0.00 | 0.00 | 28 | 1015.3 |
| 20260502194127 | 19 | 301 | 4.8 | 8.0 | 0.00 | 0.00 | 0.00 | 31 | 1015.6 |
| 20260502193623 | 18 | 308 | 4.8 | 12.9 | 0.00 | 0.00 | 0.00 | 30 | 1015.6 |
| 20260502193120 | 18 | 283 | 4.8 | 8.0 | 0.00 | 0.00 | 0.00 | 27 | 1015.8 |
| 20260502192615 | 18 | 252 | 3.2 | 4.8 | 0.00 | 0.00 | 0.00 | 29 | 1015.7 |
| 20260502192113 | 18 | 279 | 1.6 | 14.5 | 0.00 | 0.00 | 0.00 | 28 | 1015.9 |
| 20260502191610 | 18 | 248 | 1.6 | 3.2 | 0.00 | 0.00 | 0.00 | 28 | 1015.9 |
| 20260502191108 | 18 | 182 | 4.8 | 8.0 | 0.00 | 0.00 | 0.00 | 30 | 1016.1 |
| 20260502190605 | 18 | 142 | 1.6 | 9.7 | 0.00 | 0.00 | 0.00 | 27 | 1016.4 |
| 20260502185556 | 18 | 299 | 6.4 | 9.7 | 0.00 | 0.00 | 0.00 | 30 | 1016.3 |
| 20260502185054 | 18 | 275 | 6.4 | 8.0 | 0.00 | 0.00 | 0.00 | 29 | 1016.2 |
| 20260502184549 | 17 | 245 | 3.2 | 8.0 | 0.00 | 0.00 | 0.00 | 29 | 1016.4 |
| 20260502184045 | 17 | 260 | 6.4 | 8.0 | 0.00 | 0.00 | 0.00 | 31 | 1016.6 |
| 20260502183542 | 17 | 208 | 3.2 | 4.8 | 0.00 | 0.00 | 0.00 | 32 | 1016.5 |
| 20260502183038 | 17 | 321 | 1.6 | 3.2 | 0.00 | 0.00 | 0.00 | 29 | 1016.6 |
| 20260502182533 | 17 | 216 | 1.6 | 4.8 | 0.00 | 0.00 | 0.00 | 30 | 1016.9 |
| 20260502182030 | 17 | 305 | 1.6 | 8.0 | 0.00 | 0.00 | 0.00 | 32 | 1017.1 |
| 20260502181528 | 17 | 260 | 8.0 | 14.5 | 0.00 | 0.00 | 0.00 | 31 | 1017.1 |
| 20260502181027 | 17 | 255 | 6.4 | 8.0 | 0.00 | 0.00 | 0.00 | 35 | 1017.3 |
| 20260502180523 | 17 | 301 | 4.8 | 9.7 | 0.00 | 0.00 | 0.00 | 30 | 1017.2 |
| 20260502170448 | 15 | 230 | 3.2 | 8.0 | 0.00 | 0.00 | 0.00 | 32 | 1018.2 |
| 20260502163931 | 16 | 247 | 1.6 | 4.8 | 0.00 | 0.00 | 0.00 | 33 | 1018.4 |
| 20260502163427 | 15 | 243 | 0.0 | 8.0 | 0.00 | 0.00 | 0.00 | 32 | 1018.6 |
| 20260502162925 | 15 | 264 | 8.0 | 9.7 | 0.00 | 0.00 | 0.00 | 31 | 1018.8 |
| 20260502162422 | 15 | 232 | 4.8 | 8.0 | 0.00 | 0.00 | 0.00 | 33 | 1018.7 |
| 20260502161919 | 15 | 247 | 1.6 | 3.2 | 0.00 | 0.00 | 0.00 | 31 | 1018.7 |
| 20260502161415 | 15 | 291 | 4.8 | 4.8 | 0.00 | 0.00 | 0.00 | 33 | 1018.8 |
| 20260502160913 | 15 | 297 | 8.0 | 11.3 | 0.00 | 0.00 | 0.00 | 32 | 1018.9 |
| 20260502160411 | 15 | 254 | 4.8 | 12.9 | 0.00 | 0.00 | 0.00 | 32 | 1018.7 |
| 20260502151843 | 13 | 243 | 1.6 | 8.0 | 0.00 | 0.00 | 0.00 | 36 | 1019.4 |
| 20260502151339 | 13 | 274 | 8.0 | 11.3 | 0.00 | 0.00 | 0.00 | 35 | 1019.3 |
| 20260502150837 | 13 | 264 | 12.9 | 16.1 | 0.00 | 0.00 | 0.00 | 35 | 1019.2 |
| 20260502150333 | 13 | 234 | 3.2 | 8.0 | 0.00 | 0.00 | 0.00 | 36 | 1019.4 |
| 20260502130721 | 7 | 257 | 3.2 | 4.8 | 0.00 | 0.00 | 0.00 | 56 | 1020.0 |
| 20260502130219 | 7 | 260 | 1.6 | 1.6 | 0.00 | 0.00 | 0.00 | 58 | 1020.3 |
| 20260502123705 | 6 | 240 | 0.0 | 1.6 | 0.00 | 0.00 | 0.00 | 62 | 1019.7 |
| 20260502123202 | 6 | 245 | 0.0 | 1.6 | 0.00 | 0.00 | 0.00 | 61 | 1020.0 |
| 20260502122658 | 6 | 285 | 0.0 | 0.0 | 0.00 | 0.00 | 0.00 | 61 | 1020.1 |
| 20260502122155 | 6 | 285 | 0.0 | 0.0 | 0.00 | 0.00 | 0.00 | 66 | 1019.9 |
| 20260502121653 | 5 | 285 | 0.0 | 0.0 | 0.00 | 0.00 | 0.00 | 69 | 1019.9 |
| 20260502121151 | 4 | 285 | 0.0 | 0.0 | 0.00 | 0.00 | 0.00 | 69 | 1020.1 |
| 20260502120647 | 3 | 285 | 0.0 | 0.0 | 0.00 | 0.00 | 0.00 | 69 | 1020.0 |
| 20260502120144 | 3 | 285 | 0.0 | 0.0 | 0.00 | 0.00 | 0.00 | 71 | 1020.0 |
| 20260502115641 | 2 | 285 | 0.0 | 0.0 | 0.00 | 0.00 | 0.00 | 75 | 1019.9 |
| 20260502115137 | 1 | 285 | 0.0 | 0.0 | 0.00 | 0.00 | 0.00 | 84 | 1020.0 |
| 20260502114633 | 1 | 285 | 0.0 | 0.0 | 0.00 | 0.00 | 0.00 | 86 | 1020.0 |
| 20260502114131 | 0 | 285 | 0.0 | 0.0 | 0.00 | 0.00 | 0.00 | 87 | 1020.0 |
| 20260502113628 | 0 | 285 | 0.0 | 0.0 | 0.00 | 0.00 | 0.00 | 87 | 1019.8 |
| 20260502113127 | 0 | 285 | 0.0 | 0.0 | 0.00 | 0.00 | 0.00 | 87 | 1019.9 |
| 20260502112624 | -1 | 285 | 0.0 | 0.0 | 0.00 | 0.00 | 0.00 | 87 | 1019.9 |
| 20260502112121 | -1 | 285 | 0.0 | 0.0 | 0.00 | 0.00 | 0.00 | 87 | 1019.8 |
| 20260502111619 | -1 | 285 | 0.0 | 0.0 | 0.00 | 0.00 | 0.00 | 87 | 1019.6 |
| 20260502111116 | -1 | 285 | 0.0 | 0.0 | 0.00 | 0.00 | 0.00 | 87 | 1019.5 |
| 20260502110614 | -1 | 285 | 0.0 | 0.0 | 0.00 | 0.00 | 0.00 | 86 | 1019.7 |
| 20260502110111 | -1 | 285 | 0.0 | 0.0 | 0.00 | 0.00 | 0.00 | 86 | 1020.0 |
| 20260502105608 | 0 | 285 | 0.0 | 0.0 | 0.00 | 0.00 | 0.00 | 86 | 1019.8 |
| 20260502105105 | 0 | 285 | 0.0 | 0.0 | 0.00 | 0.00 | 0.00 | 86 | 1019.6 |
| 20260502104602 | 0 | 285 | 0.0 | 0.0 | 0.00 | 0.00 | 0.00 | 86 | 1019.9 |
| 20260502104100 | -1 | 285 | 0.0 | 0.0 | 0.00 | 0.00 | 0.00 | 85 | 1019.5 |
| 20260502103557 | -1 | 285 | 0.0 | 0.0 | 0.00 | 0.00 | 0.00 | 84 | 1020.0 |
| 20260502103055 | -1 | 285 | 0.0 | 0.0 | 0.00 | 0.00 | 0.00 | 84 | 1019.8 |
| 20260502102551 | -1 | 285 | 0.0 | 0.0 | 0.00 | 0.00 | 0.00 | 84 | 1020.0 |
| 20260502102048 | 0 | 285 | 0.0 | 0.0 | 0.00 | 0.00 | 0.00 | 83 | 1019.9 |
| 20260502101547 | 0 | 285 | 0.0 | 0.0 | 0.00 | 0.00 | 0.00 | 82 | 1019.9 |
| 20260502101044 | 0 | 285 | 0.0 | 0.0 | 0.00 | 0.00 | 0.00 | 82 | 1019.9 |
| 20260502100543 | 0 | 285 | 0.0 | 0.0 | 0.00 | 0.00 | 0.00 | 82 | 1019.8 |
| 20260502091517 | 0 | 285 | 0.0 | 0.0 | 0.00 | 0.00 | 0.00 | 79 | 1019.6 |
| 20260502091015 | 0 | 285 | 0.0 | 0.0 | 0.00 | 0.00 | 0.00 | 78 | 1019.7 |
| 20260502090511 | 0 | 285 | 0.0 | 0.0 | 0.00 | 0.00 | 0.00 | 79 | 1019.6 |
| 20260502071406 | 0 | 254 | 0.0 | 0.0 | 0.00 | 0.00 | 0.00 | 82 | 1019.7 |
| 20260502070904 | 0 | 254 | 0.0 | 0.0 | 0.00 | 0.00 | 0.00 | 82 | 1019.8 |
| 20260502070402 | 0 | 254 | 0.0 | 0.0 | 0.00 | 0.00 | 0.00 | 81 | 1019.6 |
| 20260502065900 | 0 | 254 | 0.0 | 0.0 | 0.00 | 0.00 | 0.00 | 81 | 1019.8 |
| 20260502065358 | 0 | 254 | 0.0 | 0.0 | 0.00 | 0.00 | 0.00 | 82 | 1019.6 |
| 20260502064856 | 0 | 254 | 0.0 | 0.0 | 0.00 | 0.00 | 0.00 | 82 | 1019.8 |
| 20260502064354 | 0 | 254 | 0.0 | 0.0 | 0.00 | 0.00 | 0.00 | 81 | 1020.1 |
| 20260502063850 | 0 | 254 | 0.0 | 0.0 | 0.00 | 0.00 | 0.00 | 81 | 1019.8 |
| 20260502063348 | 0 | 254 | 0.0 | 0.0 | 0.00 | 0.00 | 0.00 | 82 | 1020.0 |
| 20260502062845 | 0 | 254 | 0.0 | 0.0 | 0.00 | 0.00 | 0.00 | 81 | 1019.9 |
| 20260502062343 | 0 | 254 | 0.0 | 0.0 | 0.00 | 0.00 | 0.00 | 80 | 1019.9 |
| 20260502061842 | 0 | 254 | 0.0 | 0.0 | 0.00 | 0.00 | 0.00 | 77 | 1020.3 |
| 20260502061339 | 1 | 254 | 0.0 | 0.0 | 0.00 | 0.00 | 0.00 | 78 | 1020.0 |
| 20260502060835 | 1 | 254 | 0.0 | 0.0 | 0.00 | 0.00 | 0.00 | 78 | 1020.1 |
| 20260502060330 | 1 | 254 | 0.0 | 0.0 | 0.00 | 0.00 | 0.00 | 77 | 1020.3 |
| 20260502055828 | 1 | 254 | 0.0 | 0.0 | 0.00 | 0.00 | 0.00 | 75 | 1020.1 |
| 20260502055326 | 1 | 254 | 0.0 | 0.0 | 0.00 | 0.00 | 0.00 | 73 | 1020.3 |
| 20260502054825 | 1 | 254 | 0.0 | 0.0 | 0.00 | 0.00 | 0.00 | 72 | 1020.1 |
| 20260502054322 | 1 | 254 | 0.0 | 0.0 | 0.00 | 0.00 | 0.00 | 73 | 1020.3 |
| 20260502053819 | 1 | 254 | 0.0 | 0.0 | 0.00 | 0.00 | 0.00 | 72 | 1020.1 |
| 20260502053316 | 1 | 254 | 0.0 | 0.0 | 0.00 | 0.00 | 0.00 | 74 | 1020.1 |
| 20260502052814 | 1 | 254 | 0.0 | 0.0 | 0.00 | 0.00 | 0.00 | 77 | 1020.1 |
| 20260502052312 | 1 | 254 | 0.0 | 0.0 | 0.00 | 0.00 | 0.00 | 73 | 1019.9 |
| 20260502051809 | 1 | 254 | 0.0 | 0.0 | 0.00 | 0.00 | 0.00 | 73 | 1019.8 |
| 20260502051308 | 2 | 254 | 0.0 | 0.0 | 0.00 | 0.00 | 0.00 | 70 | 1019.9 |
| 20260502050804 | 2 | 254 | 0.0 | 0.0 | 0.00 | 0.00 | 0.00 | 65 | 1019.9 |
| 20260502050300 | 2 | 254 | 0.0 | 0.0 | 0.00 | 0.00 | 0.00 | 66 | 1019.8 |
| 20260502045757 | 2 | 254 | 0.0 | 0.0 | 0.00 | 0.00 | 0.00 | 67 | 1019.9 |
| 20260502045254 | 2 | 254 | 0.0 | 0.0 | 0.00 | 0.00 | 0.00 | 66 | 1019.9 |
| 20260502044751 | 2 | 254 | 0.0 | 0.0 | 0.00 | 0.00 | 0.00 | 66 | 1019.9 |
| 20260502044247 | 2 | 254 | 0.0 | 0.0 | 0.00 | 0.00 | 0.00 | 64 | 1019.8 |
| 20260502043745 | 2 | 254 | 0.0 | 0.0 | 0.00 | 0.00 | 0.00 | 67 | 1019.9 |
| 20260502043242 | 2 | 254 | 0.0 | 0.0 | 0.00 | 0.00 | 0.00 | 66 | 1019.9 |
| 20260502042741 | 3 | 254 | 0.0 | 0.0 | 0.00 | 0.00 | 0.00 | 67 | 1019.6 |
| 20260502042239 | 3 | 254 | 0.0 | 0.0 | 0.00 | 0.00 | 0.00 | 65 | 1019.8 |
| 20260502041737 | 3 | 254 | 0.0 | 0.0 | 0.00 | 0.00 | 0.00 | 64 | 1019.9 |
| 20260502041234 | 3 | 254 | 0.0 | 0.0 | 0.00 | 0.00 | 0.00 | 63 | 1019.8 |
| 20260502040731 | 3 | 254 | 0.0 | 0.0 | 0.00 | 0.00 | 0.00 | 65 | 1020.0 |
| 20260502040227 | 3 | 254 | 0.0 | 0.0 | 0.00 | 0.00 | 0.00 | 63 | 1019.9 |
| 20260502035723 | 3 | 254 | 0.0 | 0.0 | 0.00 | 0.00 | 0.00 | 61 | 1019.7 |
| 20260502035221 | 3 | 254 | 0.0 | 0.0 | 0.00 | 0.00 | 0.00 | 61 | 1020.1 |
| 20260502034718 | 4 | 254 | 0.0 | 0.0 | 0.00 | 0.00 | 0.00 | 60 | 1019.8 |
| 20260502034216 | 4 | 254 | 0.0 | 0.0 | 0.00 | 0.00 | 0.00 | 62 | 1020.1 |
| 20260502033714 | 4 | 254 | 0.0 | 0.0 | 0.00 | 0.00 | 0.00 | 62 | 1019.9 |
| 20260502033211 | 4 | 254 | 0.0 | 0.0 | 0.00 | 0.00 | 0.00 | 61 | 1019.9 |
| 20260502032708 | 4 | 254 | 0.0 | 0.0 | 0.00 | 0.00 | 0.00 | 63 | 1020.3 |
| 20260502032203 | 4 | 254 | 0.0 | 0.0 | 0.00 | 0.00 | 0.00 | 60 | 1020.1 |
| 20260502031702 | 4 | 254 | 0.0 | 0.0 | 0.00 | 0.00 | 0.00 | 60 | 1019.9 |
| 20260502031159 | 5 | 254 | 0.0 | 0.0 | 0.00 | 0.00 | 0.00 | 61 | 1020.0 |
| 20260502030658 | 5 | 254 | 0.0 | 0.0 | 0.00 | 0.00 | 0.00 | 58 | 1019.9 |
| 20260502030156 | 5 | 254 | 0.0 | 1.6 | 0.00 | 0.00 | 0.00 | 57 | 1019.9 |
| 20260502025652 | 5 | 254 | 0.0 | 1.6 | 0.00 | 0.00 | 0.00 | 57 | 1020.0 |
| 20260502025150 | 5 | 254 | 0.0 | 0.0 | 0.00 | 0.00 | 0.00 | 55 | 1019.8 |
| 20260502024648 | 6 | 254 | 0.0 | 1.6 | 0.00 | 0.00 | 0.00 | 53 | 1019.8 |
| 20260502024146 | 6 | 254 | 1.6 | 1.6 | 0.00 | 0.00 | 0.00 | 53 | 1019.9 |
| 20260502023644 | 6 | 254 | 1.6 | 1.6 | 0.00 | 0.00 | 0.00 | 53 | 1019.8 |
| 20260502023141 | 6 | 254 | 0.0 | 0.0 | 0.00 | 0.00 | 0.00 | 49 | 1019.9 |
| 20260502022638 | 6 | 254 | 0.0 | 0.0 | 0.00 | 0.00 | 0.00 | 49 | 1019.7 |
| 20260502022135 | 6 | 254 | 1.6 | 1.6 | 0.00 | 0.00 | 0.00 | 47 | 1019.6 |
| 20260502021632 | 6 | 254 | 0.0 | 1.6 | 0.00 | 0.00 | 0.00 | 47 | 1019.7 |
| 20260502021129 | 7 | 254 | 0.0 | 0.0 | 0.00 | 0.00 | 0.00 | 46 | 1019.7 |
| 20260502020626 | 7 | 254 | 0.0 | 0.0 | 0.00 | 0.00 | 0.00 | 45 | 1019.7 |
| 20260502020123 | 7 | 254 | 0.0 | 0.0 | 0.00 | 0.00 | 0.00 | 44 | 1019.6 |
| 20260502015621 | 7 | 254 | 0.0 | 1.6 | 0.00 | 0.00 | 0.00 | 44 | 1019.5 |
| 20260502015117 | 7 | 254 | 0.0 | 1.6 | 0.00 | 0.00 | 0.00 | 43 | 1019.4 |
| 20260502014614 | 8 | 254 | 0.0 | 0.0 | 0.00 | 0.00 | 0.00 | 42 | 1019.4 |
| 20260502014111 | 8 | 254 | 0.0 | 1.6 | 0.00 | 0.00 | 0.00 | 41 | 1019.6 |
| 20260502013607 | 8 | 254 | 0.0 | 0.0 | 0.00 | 0.00 | 0.00 | 39 | 1019.5 |
| 20260502013103 | 9 | 254 | 0.0 | 0.0 | 0.00 | 0.00 | 0.00 | 38 | 1019.3 |
| 20260502012601 | 9 | 254 | 0.0 | 1.6 | 0.00 | 0.00 | 0.00 | 37 | 1019.4 |
| 20260502012059 | 10 | 310 | 0.0 | 0.0 | 0.00 | 0.00 | 0.00 | 38 | 1019.5 |
| 20260502011555 | 10 | 310 | 0.0 | 1.6 | 0.00 | 0.00 | 0.00 | 36 | 1019.4 |
| 20260502011051 | 10 | 282 | 0.0 | 3.2 | 0.00 | 0.00 | 0.00 | 34 | 1019.2 |
| 20260502010549 | 10 | 285 | 3.2 | 3.2 | 0.00 | 0.00 | 0.00 | 34 | 1019.5 |
| 20260502010045 | 10 | 262 | 3.2 | 3.2 | 0.00 | 0.00 | 0.00 | 34 | 1019.2 |
| 20260502005543 | 10 | 315 | 3.2 | 3.2 | 0.00 | 0.00 | 0.00 | 34 | 1019.4 |
| 20260502005040 | 10 | 296 | 1.6 | 4.8 | 0.00 | 0.00 | 0.00 | 33 | 1019.3 |
| 20260502004536 | 10 | 237 | 1.6 | 3.2 | 0.00 | 0.00 | 0.00 | 35 | 1019.3 |
| 20260502004033 | 11 | 283 | 3.2 | 4.8 | 0.00 | 0.00 | 0.00 | 33 | 1019.2 |
| 20260502003531 | 11 | 320 | 4.8 | 8.0 | 0.00 | 0.00 | 0.00 | 33 | 1019.1 |
| 20260502003027 | 11 | 269 | 4.8 | 8.0 | 0.00 | 0.00 | 0.00 | 33 | 1018.9 |
| 20260502002524 | 11 | 264 | 3.2 | 8.0 | 0.00 | 0.00 | 0.00 | 32 | 1019.0 |
| 20260502002021 | 11 | 263 | 4.8 | 8.0 | 0.00 | 0.00 | 0.00 | 32 | 1019.1 |
| 20260502001519 | 11 | 270 | 4.8 | 8.0 | 0.00 | 0.00 | 0.00 | 32 | 1019.1 |
| 20260502001016 | 11 | 244 | 6.4 | 8.0 | 0.00 | 0.00 | 0.00 | 31 | 1019.2 |
| 20260502000514 | 12 | 299 | 1.6 | 8.0 | 0.00 | 0.00 | 0.00 | 32 | 1018.9 |
| 20260502000011 | 12 | 304 | 3.2 | 4.8 | 0.00 | 0.00 | 0.00 | 31 | 1018.8 |
| 20260501235507 | 12 | 281 | 3.2 | 8.0 | 0.00 | 0.00 | 0.00 | 31 | 1018.9 |
| 20260501235001 | 12 | 56 | 1.6 | 3.2 | 0.00 | 0.00 | 0.00 | 32 | 1018.9 |
| 20260501234458 | 12 | 258 | 3.2 | 4.8 | 0.00 | 0.00 | 0.00 | 32 | 1018.8 |
| 20260501233957 | 12 | 315 | 6.4 | 11.3 | 0.00 | 0.00 | 0.00 | 30 | 1018.7 |
| 20260501233454 | 12 | 226 | 0.0 | 4.8 | 0.00 | 0.00 | 0.00 | 31 | 1019.0 |
| 20260501232950 | 13 | 220 | 1.6 | 1.6 | 0.00 | 0.00 | 0.00 | 32 | 1018.8 |
| 20260501232447 | 12 | 277 | 1.6 | 4.8 | 0.00 | 0.00 | 0.00 | 34 | 1018.9 |
| 20260501231944 | 12 | 257 | 3.2 | 8.0 | 0.00 | 0.00 | 0.00 | 32 | 1018.8 |
| 20260501231443 | 12 | 120 | 1.6 | 4.8 | 0.00 | 0.00 | 0.00 | 32 | 1018.9 |
| 20260501230940 | 12 | 306 | 3.2 | 4.8 | 0.00 | 0.00 | 0.00 | 33 | 1018.8 |
| 20260501230439 | 12 | 74 | 1.6 | 3.2 | 0.00 | 0.00 | 0.00 | 32 | 1019.0 |
| 20260501225936 | 12 | 254 | 1.6 | 4.8 | 0.00 | 0.00 | 0.00 | 32 | 1018.9 |
| 20260501225434 | 12 | 241 | 4.8 | 11.3 | 0.00 | 0.00 | 0.00 | 33 | 1018.9 |
| 20260501224929 | 12 | 287 | 6.4 | 8.0 | 0.00 | 0.00 | 0.00 | 32 | 1018.8 |
| 20260501224427 | 13 | 137 | 1.6 | 9.7 | 0.00 | 0.00 | 0.00 | 31 | 1018.8 |
| 20260501223924 | 12 | 279 | 1.6 | 3.2 | 0.00 | 0.00 | 0.00 | 31 | 1018.6 |
| 20260501223420 | 12 | 321 | 3.2 | 8.0 | 0.00 | 0.00 | 0.00 | 31 | 1018.9 |
| 20260501222916 | 11 | 260 | 3.2 | 4.8 | 0.00 | 0.00 | 0.00 | 33 | 1019.0 |
| 20260501222414 | 11 | 314 | 4.8 | 8.0 | 0.00 | 0.00 | 0.00 | 35 | 1018.9 |
| 20260501221909 | 12 | 261 | 3.2 | 8.0 | 0.00 | 0.00 | 0.00 | 34 | 1019.0 |
| 20260501221407 | 11 | 289 | 1.6 | 4.8 | 0.00 | 0.00 | 0.00 | 34 | 1019.1 |
| 20260501220905 | 12 | 118 | 3.2 | 8.0 | 0.00 | 0.00 | 0.00 | 35 | 1018.9 |
| 20260501220402 | 11 | 253 | 3.2 | 3.2 | 0.00 | 0.00 | 0.00 | 33 | 1018.7 |
| 20260501215858 | 11 | 256 | 1.6 | 4.8 | 0.00 | 0.00 | 0.00 | 36 | 1018.7 |
| 20260501215354 | 11 | 276 | 1.6 | 3.2 | 0.00 | 0.00 | 0.00 | 35 | 1018.8 |
| 20260501214850 | 11 | 319 | 1.6 | 4.8 | 0.00 | 0.00 | 0.00 | 33 | 1018.8 |
| 20260501214345 | 11 | 308 | 4.8 | 8.0 | 0.00 | 0.00 | 0.00 | 35 | 1018.8 |
| 20260501213841 | 11 | 271 | 4.8 | 9.7 | 0.00 | 0.00 | 0.00 | 34 | 1018.7 |
| 20260501213338 | 12 | 246 | 3.2 | 3.2 | 0.00 | 0.00 | 0.00 | 34 | 1018.7 |
| 20260501212834 | 12 | 326 | 3.2 | 4.8 | 0.00 | 0.00 | 0.00 | 33 | 1019.0 |
| 20260501212331 | 11 | 155 | 4.8 | 8.0 | 0.00 | 0.00 | 0.00 | 34 | 1018.9 |
| 20260501211828 | 11 | 294 | 4.8 | 11.3 | 0.00 | 0.00 | 0.00 | 35 | 1019.0 |
| 20260501211326 | 11 | 249 | 4.8 | 11.3 | 0.00 | 0.00 | 0.00 | 33 | 1018.7 |
| 20260501210823 | 12 | 267 | 4.8 | 8.0 | 0.00 | 0.00 | 0.00 | 33 | 1018.7 |
| 20260501210320 | 12 | 270 | 4.8 | 8.0 | 0.00 | 0.00 | 0.00 | 34 | 1018.9 |
| 20260501205816 | 12 | 288 | 6.4 | 8.0 | 0.00 | 0.00 | 0.00 | 33 | 1018.8 |
| 20260501205313 | 11 | 5 | 1.6 | 11.3 | 0.00 | 0.00 | 0.00 | 35 | 1019.1 |
| 20260501204809 | 11 | 22 | 3.2 | 9.7 | 0.00 | 0.00 | 0.00 | 35 | 1019.2 |
| 20260501204306 | 11 | 299 | 4.8 | 4.8 | 0.00 | 0.00 | 0.00 | 33 | 1018.8 |
| 20260501203802 | 11 | 213 | 1.6 | 4.8 | 0.00 | 0.00 | 0.00 | 35 | 1019.1 |
| 20260501203300 | 12 | 316 | 11.3 | 11.3 | 0.00 | 0.00 | 0.00 | 33 | 1019.2 |
| 20260501202757 | 12 | 236 | 1.6 | 3.2 | 0.00 | 0.00 | 0.00 | 37 | 1019.3 |
| 20260501202253 | 11 | 223 | 1.6 | 4.8 | 0.00 | 0.00 | 0.00 | 34 | 1019.3 |
| 20260501201750 | 11 | 239 | 3.2 | 14.5 | 0.00 | 0.00 | 0.00 | 33 | 1019.2 |
| 20260501201247 | 12 | 283 | 6.4 | 9.7 | 0.00 | 0.00 | 0.00 | 35 | 1019.1 |
| 20260501200744 | 13 | 249 | 1.6 | 8.0 | 0.00 | 0.00 | 0.00 | 32 | 1019.0 |
| 20260501200241 | 13 | 245 | 0.0 | 4.8 | 0.00 | 0.00 | 0.00 | 35 | 1019.2 |
| 20260501195738 | 12 | 236 | 1.6 | 11.3 | 0.00 | 0.00 | 0.00 | 34 | 1019.1 |
| 20260501195234 | 12 | 269 | 1.6 | 3.2 | 0.00 | 0.00 | 0.00 | 34 | 1019.1 |